This is the latest recevied weather packets stored in our database for station/object KJ6LNH-1. If no packets are shown the sender has not sent any weather packets the latest 10 day(s).
| Time | Temp. | Humidity | Pressure | Rain* | Wind** | Luminosity | Snow |
|---|---|---|---|---|---|---|---|
| 1787792709 | 32.78° C | 23% | 1010.9 hPa | 0 mm | - | - | - |
| 1787792408 | 33.33° C | 23% | 1011 hPa | 0 mm | - | - | - |
| 1787791807 | 33.89° C | 24% | 1011 hPa | 0 mm | - | - | - |
| 1787791210 | 33.89° C | 23% | 1010.9 hPa | 0 mm | - | - | - |
| 1787790307 | 34.44° C | 23% | 1011.2 hPa | 0 mm | - | - | - |
| 1787790006 | 35° C | 24% | 1011.2 hPa | 0 mm | - | - | - |
| 1787789406 | 35.56° C | 24% | 1011.1 hPa | 0 mm | - | - | - |
| 1787788507 | 35.56° C | 23% | 1011.1 hPa | 0 mm | - | - | - |
| 1787787907 | 35.56° C | 21% | 1011.1 hPa | 0 mm | - | - | - |
| 1787787607 | 35.56° C | 21% | 1011.1 hPa | 0 mm | - | - | - |
| 1787787308 | 36.11° C | 21% | 1011.1 hPa | 0 mm | - | - | - |
| 1787787006 | 35.56° C | 21% | 1011.2 hPa | 0 mm | - | - | - |
| 1787785807 | 36.11° C | 19% | 1011.5 hPa | 0 mm | - | - | - |
| 1787785506 | 36.11° C | 19% | 1011.5 hPa | 0 mm | - | - | - |
| 1787785209 | 35.56° C | 19% | 1011.6 hPa | 0 mm | - | - | - |
| 1787784909 | 35.56° C | 19% | 1011.7 hPa | 0 mm | - | - | - |
| 1787784006 | 35.56° C | 19% | 1011.9 hPa | 0 mm | - | - | - |
| 1787783709 | 35.56° C | 19% | 1011.9 hPa | 0 mm | - | - | - |
| 1787783407 | 35.56° C | 18% | 1012 hPa | 0 mm | - | - | - |
| 1787782807 | 35.56° C | 18% | 1012.2 hPa | 0 mm | - | - | - |
| 1787782507 | 34.44° C | 18% | 1012.3 hPa | 0 mm | - | - | - |
| 1787782207 | 35° C | 18% | 1012.4 hPa | 0 mm | - | - | - |
| 1787781908 | 35° C | 18% | 1012.5 hPa | 0 mm | - | - | - |
| 1787780707 | 35° C | 17% | 1012.7 hPa | 0 mm | - | - | - |
| 1787780406 | 34.44° C | 19% | 1012.8 hPa | 0 mm | - | - | - |
* Rain latest hour (hover to see other rain measurements)
** Current wind speed in m/s (hover to see current wind gust speed)